Globalstar M059

operational
NORAD ID: 25944 Int'l Des: 1999-058 Owner: GLOBT Country: US Constellation: globalstar
LEOCIRCULAR

Über Globalstar M059

Beschreibung wird geladen...

Live-Position

3D-Globus wird geladen...

Nächste Überflüge

Höhenverlauf

Altitude vs Time

uPlot chart will show altitude changes over time

Zweizeiliger Elementsatz

1 25944U 99058B 26063.38135933 -.00000093 00000-0 -89724-4 0 9995
2 25944 51.9998 223.2537 0001315 114.4898 259.0179 11.99994974605282
Epoch: 4. März 2026 • Age: 20 hours

Aktueller Status

Höhe 1680.3 km
Geschwindigkeit 7.04 km/s
Subsatellitenpunkt 7.92°N, 67.02°W
Startdatum 18. Okt. 1999
Alter 26.3 years
Typ communications

Technische Details

Klassifizierung Payload
Masse 450.00 kg
Trockenmasse 380.00 kg
Gesamtmasse 450.00 kg
Länge 1.50 m
Durchmesser 0.60 m
Spannweite 12.00 m
Form Box + 2 Pan
Hersteller LOR
Bus-Typ LS-400
Phasenstatus In Orbit
Besitzer/Staat GLOBT/US

Große Konstellationen

Loading constellations...